Regional Weather Roundup
Issued by NWS

Home | Current Version | Previous Version | Text Only | Print | Product List | Glossary On
Versions: 1 2 3 4 5 6 7 8 9 10 11 12 13 14 15 16 17 18 19 20 21 22 23 24 25 26 27 28 29 30 31 32 33 34 35 36 37 38 39 40 41 42 43 44 45 46 47 48 49 50
000
ASUS45 KABQ 281810
RWRNM
NEW MEXICO REGIONAL WEATHER ROUNDUP
NATIONAL WEATHER SERVICE ALBUQUERQUE NM
1200 PM MDT TUE JUL 28 2015

NOTE: "FAIR" MEANS FEW OR NO CLOUDS BELOW 12,000 FEET AGL WITH NO
       SIGNIFICANT WEATHER OR OBSTRUCTIONS TO VISION.

      THIS PRODUCT IS RELEASED AS TWO VERSIONS.  ONE VERSION NEAR
      THE TOP OF THE HOUR CONTAINING PRELIMINARY DATA FROM ALBUQUERQUE
      AND OTHER STATIONS.  A FINAL VERSION WITH ADDITIONAL DATA IS
      ISSUED ABOUT 10 MINUTES AFTER THE HOUR.

NMZ501-503-504-510>518-281900-
NORTHWEST PLATEAU/NORTHCENTRAL MOUNTAINS

CITY           SKY/WX    TMP DP  RH WIND       PRES   REMARKS
FARMINGTON     MOSUNNY   84  27  12 VRB7      30.17S
6HR MIN TEMP:  51; 6HR MAX TEMP:  85;

LOS ALAMOS     MOSUNNY   78  47  33 NE7       30.30F
SANTA FE       SUNNY     85  43  22 S7        30.21F
6HR MIN TEMP:  67; 6HR MAX TEMP:  86;

TAOS           MOSUNNY   81  37  21 CALM      30.29F
ANGEL FIRE     FAIR      72  42  33 CALM      30.39S

$$
NMZ402-403-502-505>509-281900-
WESTCENTRAL MOUNTAINS/SOUTHWEST MOUNTAINS

CITY           SKY/WX    TMP DP  RH WIND       PRES   REMARKS
GALLUP         PTSUNNY   82  31  15 CALM      30.26F
6HR MIN TEMP:  56; 6HR MAX TEMP:  82;

GRANTS         SUNNY     81  39  22 NE3       30.28S
SILVER CITY      N/A     86  48  26 SW5       30.18S

$$
NMZ407-409-411-412-281900-
SOUTHERN DESERTS

CITY           SKY/WX    TMP DP  RH WIND       PRES   REMARKS
LORDSBURG      FAIR      88  52  29 NW8       30.09F
DEMING         MOSUNNY   88  52  29 VRB3      30.08S
6HR MIN TEMP:  75; 6HR MAX TEMP:  89;

LAS CRUCES     MOSUNNY   85  59  41 E5        30.11S
HOLLOMAN AFB   MOSUNNY   91  55  29 SW6       30.04F
ALAMOGORDO     MOSUNNY   90  54  29 CALM      30.06F
T OR C         PTSUNNY   90  48  23 W12       30.10F
6HR MIN TEMP:  73; 6HR MAX TEMP:  90;


$$
NMZ519>523-281900-
CENTRAL VALLEYS/CENTRAL HIGHLANDS

CITY           SKY/WX    TMP DP  RH WIND       PRES   REMARKS
ALBUQUERQUE    MOSUNNY   86  45  23 NW7       30.16F
6HR MIN TEMP:  71; 6HR MAX TEMP:  87;

DOUBLE EAGLE   MOSUNNY   84  52  32 VRB6      30.20S
MORIARTY ARPT    N/A     86  42  21 W3        30.22S
6HR MIN TEMP:  54; 6HR MAX TEMP:  86;

CLINES CORNERS SUNNY     81  46  29 NW9       30.27S
6HR MIN TEMP:  62; 6HR MAX TEMP:  83;

BELEN          FAIR      88  41  19 N6        30.15S
6HR MIN TEMP:  66; 6HR MAX TEMP:  88;

SOCORRO        FAIR      86  50  28 CALM      30.12F
6HR MIN TEMP:  68; 6HR MAX TEMP:  86;


$$
NMZ524>526-539-540-281900-
SOUTHCENTRAL MOUNTAINS

CITY           SKY/WX    TMP DP  RH WIND       PRES   REMARKS
RUIDOSO          N/A    N/A N/A N/A MISG        N/A

$$
NMZ527>531-281900-
NORTHEAST HIGHLANDS/NORTHEAST PLAINS

CITY           SKY/WX    TMP DP  RH WIND       PRES   REMARKS
LAS VEGAS      MOSUNNY   85  42  22 S9        30.24S
6HR MIN TEMP:  57; 6HR MAX TEMP:  86;

RATON          PTSUNNY   77  48  35 E12       30.22S
6HR MIN TEMP:  55; 6HR MAX TEMP:  78;

CLAYTON        MOSUNNY   80  47  31 N15G23    30.16R
6HR MIN TEMP:  70; 6HR MAX TEMP:  80;


$$
NMZ532>537-281900-
EASTCENTRAL PLAINS

CITY           SKY/WX    TMP DP  RH WIND       PRES   REMARKS
TUCUMCARI      SUNNY     92  57  30 W5        30.01F
6HR MIN TEMP:  70; 6HR MAX TEMP:  93;

CANNON AFB     SUNNY     90  57  32 VRB5      30.06S HAZE
6HR MIN TEMP:  69; 6HR MAX TEMP:  90;

CLOVIS AIRPORT SUNNY     90  61  37 S6        30.07S

$$
NMZ028-029-538-281900-
SOUTHEAST PLAINS

CITY           SKY/WX    TMP DP  RH WIND       PRES   REMARKS
ROSWELL        SUNNY     96  56  26 N6        30.00S
6HR MIN TEMP:  69; 6HR MAX TEMP:  96;

ARTESIA        SUNNY     97  59  28 SE7       29.99F HX  96
CARLSBAD       SUNNY     98  56  24 S9        29.97S HX  96
6HR MIN TEMP:  72; 6HR MAX TEMP:  98;

HOBBS          SUNNY     93  57  29 S12       30.03F


$$


USA.gov is the U.S. government's official web portal to all federal, state and local government web resources and services.